Prescott, AZ

4:19 AM MST on December 13, 2019 (GMT -0700)
Love

Weather History for KPRC - October, 2019

Change the Weather History Date:

Saturday, October 5, 2019

  Actual Average Record
Temperature  
Mean Temperature 60 °F 60 °F  
Max Temperature 78 °F 75 °F 91 °F (1979)
Min Temperature 41 °F 46 °F 27 °F (1969)
Degree Days  
Heating Degree Days 6    
Month to date heating degree days 25  
Since 1 July heating degree days 52  
Cooling Degree Days 0    
Month to date cooling degree days 0  
Year to date cooling degree days 1130  
Growing Degree Days 10 (Base 50)    
Moisture  
Dew Point 23 °F    
Average Humidity 29    
Maximum Humidity 58    
Minimum Humidity 9    
Precipitation  
Precipitation 0.00 in 0.04 in 0.55 in (1983)
Month to date precipitation 0.00 0.18  
Year to date precipitation 10.29 11.35  
Sea Level Pressure  
Sea Level Pressure 30.04 in    
Wind  
Wind Speed 6 mph ()    
Max Wind Speed 15 mph    
Max Gust Speed 20 mph    
Visibility 10.0 miles    
Events      
T = Trace of Precipitation, MM = Missing Value Source: Averaged Metar Reports

Daily Weather History Graph

Daily Weather History Graph

Search for Another Location

Airport or City:

Astronomy

Oct. 05, 2019 Rise Set
Actual Time 6:27 AM MST 6:08 PM MST
Civil Twilight 6:02 AM MST 6:33 PM MST
Nautical Twilight 5:32 AM MST 7:02 PM MST
Astronomical Twilight 5:03 AM MST 7:31 PM MST
Moon 1:42 PM MST (10/5) 11:48 PM MST (10/5)
Length of Visible Light 12h 31m
Length of Day
11h 41m
Waxing Crescent, 51% of the Moon is Illuminated
Oct 5
Waxing Crescent
Oct 13
Full
Oct 21
Last Quarter
Oct 27
New
Nov 4
First Quarter

Hourly Weather History & Observations

Time (MST) Temp. Windchill Dew Point Humidity Pressure Visibility Wind Dir Wind Speed Gust Speed Precip Events Conditions
12:53 AM 50.0 °F - 28.0 °F 43% 30.01 in 10.0 mi SSW 10.4 mph - N/A   Clear
1:53 AM 50.0 °F - 26.1 °F 39% 30.02 in 10.0 mi SSW 8.1 mph - N/A   Clear
2:53 AM 48.9 °F - 27.0 °F 43% 30.01 in 10.0 mi SSW 10.4 mph - N/A   Clear
3:53 AM 48.0 °F - 27.0 °F 44% 30.02 in 10.0 mi South 9.2 mph - N/A   Clear
4:53 AM 44.1 °F 42.5 °F 28.0 °F 53% 30.06 in 10.0 mi West 3.5 mph - N/A   Clear
5:53 AM 42.1 °F 37.7 °F 28.0 °F 58% 30.08 in 10.0 mi SSW 6.9 mph - N/A   Clear
6:53 AM 42.1 °F 40.2 °F 28.0 °F 58% 30.10 in 10.0 mi South 3.5 mph - N/A   Clear
7:53 AM 54.0 °F - 30.9 °F 41% 30.10 in 10.0 mi Calm Calm - N/A   Clear
8:53 AM 61.0 °F - 32.0 °F 34% 30.11 in 10.0 mi NNE 12.7 mph - N/A   Clear
9:53 AM 64.0 °F - 25.0 °F 23% 30.11 in 10.0 mi Calm Calm - N/A   Clear
10:53 AM 71.1 °F - 28.0 °F 20% 30.10 in 10.0 mi Calm Calm - N/A   Clear
11:53 AM 75.0 °F - 21.9 °F 14% 30.06 in 10.0 mi Variable 4.6 mph 16.1 mph N/A   Clear
12:53 PM 75.9 °F - 18.0 °F 11% 30.04 in 10.0 mi South 8.1 mph - N/A   Clear
1:53 PM 77.0 °F - 19.0 °F 11% 30.01 in 10.0 mi South 11.5 mph - N/A   Clear
2:53 PM 77.0 °F - 18.0 °F 11% 30.00 in 10.0 mi South 11.5 mph 17.3 mph N/A   Clear
3:53 PM 75.9 °F - 16.0 °F 10% 29.99 in 10.0 mi SW 11.5 mph - N/A   Clear
4:53 PM 75.0 °F - 14.0 °F 10% 30.00 in 10.0 mi SW 11.5 mph - N/A   Clear
5:53 PM 70.0 °F - 12.0 °F 11% 30.03 in 10.0 mi WSW 8.1 mph - N/A   Clear
6:53 PM 66.9 °F - 15.1 °F 14% 30.04 in 10.0 mi SW 8.1 mph - N/A   Clear
7:53 PM 61.0 °F - 18.0 °F 19% 30.03 in 10.0 mi SSW 6.9 mph - N/A   Clear
8:53 PM 55.0 °F - 25.0 °F 31% 30.04 in 10.0 mi South 5.8 mph - N/A   Clear
9:53 PM 54.0 °F - 23.0 °F 30% 30.03 in 10.0 mi South 5.8 mph - N/A   Clear
10:53 PM 52.0 °F - 21.9 °F 31% 30.02 in 10.0 mi Calm Calm - N/A   Clear
11:53 PM 51.1 °F - 19.9 °F 29% 30.01 in 10.0 mi South 6.9 mph - N/A   Clear